カタログに戻る

BREEZE-M R/B

運用中MEO
NORAD 26373·ROCKET BODY·🇷🇺 Russia

打ち上げ Jun 6, 2000 から Baikonur Cosmodrome

Loading…

次のパス (今後24時間)

TLE

最新Source: Space-Track

元期: Sep 14, 2026, 05:43 UTC

1 26373U 00029B   26257.23845583 -.00000371  00000-0  00000-0 0  9994
2 26373  13.5983   6.2163 0257734 340.6200  20.9767  1.00384291 96333

AllMySatでBREEZE-M R/Bをリアルタイム追跡

Download on the App Store